Regional Weather Roundup
Issued by NWS

Home | Current Version | Previous Version | Text Only | Print | Product List | Glossary Off
Versions: 1 2 3 4 5 6 7 8 9 10 11 12 13 14 15 16 17 18 19 20 21 22 23 24 25 26 27 28 29 30 31 32 33 34 35 36 37 38 39 40 41 42 43 44 45 46 47 48 49 50

000
ASUS45 KCYS 020810
RWRWY

WYOMING REGIONAL WEATHER ROUNDUP
NATIONAL WEATHER SERVICE CHEYENNE WY
100 AM MST MON MAR 02 2015

NOTE:  "FAIR" INDICATES FEW OR NO CLOUDS BELOW 12,000 FEET
WITH NO SIGNIFICANT WEATHER AND/OR OBSTRUCTIONS TO VISIBILITY.

WYZ001-020900-
YELLOWSTONE NATIONAL PARK

CITY           SKY/WX    TMP DP  RH WIND       PRES   REMARKS
LK YELLOWSTONE   N/A     -5 -10  79 NW3       29.96F
W YELLOWSTONE  NOT AVBL

$$
WYZ002>013-054>058-071-098>099-020900-
NORTHERN WYOMING

CITY           SKY/WX    TMP DP  RH WIND       PRES   REMARKS
JACKSON        CLOUDY     7   3  85 N10       29.98F WCI  -8
CODY           FAIR      12  10  92 CALM      29.97S
GREYBULL       FAIR      16   9  74 SW3       30.04F
WORLAND        FAIR      18   9  68 S3        30.03F
SHERIDAN       FAIR       7   1  76 SW5       29.98F WCI  -2
BUFFALO        FAIR      14   5  67 SE6       29.94F WCI   5
GILLETTE       FAIR      17   8  67 S22       30.02F WCI   0
HULETT         FAIR      21   5  49 S15       30.06F WCI   8
NEWCASTLE      FAIR      19   5  53 SE13G20   30.14F WCI   7

$$
WYZ014>020-022>026-101>103-020900-
CENTRAL WYOMING

CITY           SKY/WX    TMP DP  RH WIND       PRES   REMARKS
BIG PINEY      FAIR      13  10  88 E3        29.98F
PINEDALE       FAIR       3   0  85 W7        29.99F WCI  -9
DUBOIS         FAIR      12   5  73 NW21      29.93F WCI  -6
LANDER         FAIR      13   7  77 S5        30.00F WCI   5
RIVERTON       FAIR      16   7  67 W3        30.02F
CASPER         FAIR      20  12  71 CALM      30.01F
DOUGLAS        FAIR      23  16  74 SE22G28   30.05F WCI   8

$$
WYZ021-027>030-104>119-020900-
SOUTHERN WYOMING

CITY           SKY/WX    TMP DP  RH WIND       PRES   REMARKS
EVANSTON       CLOUDY    24  19  81 E5        29.95F WCI  18
FORT BRIDGER   PTSUNNY   24  21  86 CALM      30.00S
ROCK SPRINGS   MOCLDY    22  15  75 E5        29.96F WCI  16
DIXON          CLOUDY    31  26  82 CALM      30.01F
RAWLINS        CLOUDY    22  15  75 CALM      29.98F
SARATOGA       CLOUDY    27  21  80 CALM      29.99F
LARAMIE        CLOUDY    17  13  84 S21       29.98F WCI   0
CHEYENNE       LGT SNOW  20  15  81 S21G26    30.08F WCI   4
TORRINGTON     FAIR      27  17  66 SE9       30.16F WCI  18
PINE BLUFFS    PTSUNNY   21  19  93 S6        30.16R WCI  14

$$



USA.gov is the U.S. government's official web portal to all federal, state and local government web resources and services.